This is the latest recevied weather packets stored in our database for station/object K7TUS-6. If no packets are shown the sender has not sent any weather packets the latest 10 day(s).
| Time | Temp. | Humidity | Pressure | Rain* | Wind** | Luminosity | Snow |
|---|---|---|---|---|---|---|---|
| 1777614604 | 8.33° C | 33% | 978 hPa | - | - | - | - |
| 1777614304 | 8.33° C | 20% | 978.7 hPa | - | - | - | - |
| 1777614009 | 7.78° C | 18% | 978.7 hPa | - | - | - | - |
| 1777613409 | 6.67° C | 23% | 978.9 hPa | - | - | - | - |
| 1777612808 | 6.11° C | 48% | 978.3 hPa | - | - | - | - |
| 1777612508 | 6.11° C | 48% | 978.8 hPa | - | - | - | - |
| 1777612207 | 5.56° C | 47% | 977.6 hPa | - | - | - | - |
| 1777611607 | 6.11° C | 45% | 978.2 hPa | - | - | - | - |
| 1777611306 | 6.11° C | 41% | 978.5 hPa | - | - | - | - |
| 1777611006 | 6.67° C | 34% | 978.2 hPa | - | - | - | - |
| 1777610705 | 7.78° C | 30% | 978.5 hPa | - | - | - | - |
| 1777610405 | 7.78° C | 27% | 978.5 hPa | - | - | - | - |
| 1777610105 | 7.78° C | 25% | 978.3 hPa | - | - | - | - |
| 1777609504 | 7.22° C | 21% | 978.7 hPa | - | - | - | - |
| 1777609204 | 7.22° C | 17% | 978.1 hPa | - | - | - | - |
| 1777608909 | 7.22° C | 21% | 978.2 hPa | - | - | - | - |
| 1777608608 | 6.67° C | 32% | 978.6 hPa | - | - | - | - |
| 1777608308 | 6.67° C | 35% | 978 hPa | - | - | - | - |
| 1777608007 | 6.67° C | 37% | 978.2 hPa | - | - | - | - |
| 1777607707 | 6.67° C | 39% | 979.4 hPa | - | - | - | - |
| 1777607406 | 6.67° C | 39% | 978.7 hPa | - | - | - | - |
| 1777607105 | 6.67° C | 45% | 978.1 hPa | - | - | - | - |
| 1777606805 | 6.11° C | 50% | 977.7 hPa | - | - | - | - |
| 1777606505 | 5.56° C | 47% | 978.1 hPa | - | - | - | - |
| 1777606204 | 6.67° C | 44% | 978.4 hPa | - | - | - | - |
* Rain since midnight (hover to see other rain measurements)
** Current wind speed in m/s (hover to see current wind gust speed)